Location: Lussas
(44.6119°N, 4.4726°E)
Time: 15:14:27
(UTC+00:00)

ATLAS 2AS CENTAUR R/B - Pass Details

Date: 26 November 2020
Orbit: 943 x 1268 km, 63.7° (Epoch: 26 January)

Event Time Altitude Azimuth Distance (km) Brightness Sun altitude
Rises 04:33:17 0° 204° (SSW) 4,171 5.6 -24.4°
Reaches altitude 10° 04:36:03 10° 202° (SSW) 3,228 5.0 -23.9°
Maximum altitude 04:43:51 68° 121° (ESE) 1,352 3.3 -22.5°
Drops below altitude 10° 04:51:40 10° 41° (NE) 3,230 5.6 -21.2°
Sets 04:54:26 0° 39° (NE) 4,174 6.2 -20.7°
